Regional Weather Roundup
Issued by NWS

Home | Current Version | Previous Version | Graphics & Text | Print | Product List | Glossary Off
Versions: 1 2 3 4 5 6 7 8 9 10 11 12 13 14 15 16 17 18 19 20 21 22 23 24 25 26 27 28 29 30 31 32 33 34 35 36 37 38 39 40 41 42 43 44 45 46 47 48 49 50

000
ASUS43 KFSD 241710
RWRSD

WEATHER ROUNDUP FOR SOUTH DAKOTA
NATIONAL WEATHER SERVICE SIOUX FALLS SD
1200 PM CDT SAT JUN 24 2017

NOTE: "FAIR" INDICATES FEW OR NO CLOUDS BELOW 12,000 FEET WITH NO
SIGNIFICANT WEATHER AND/OR OBSTRUCTIONS TO VISIBILITY.


SDZ001>005-009-010-012>017-241800-
NORTHWEST AND NORTH CENTRAL SOUTH DAKOTA

CITY           SKY/WX    TMP DP  RH WIND       PRES   REMARKS
BUFFALO          N/A     65  36  34 N20       30.21S
FAITH            N/A     66  38  35 NW24      30.23S
MOBRIDGE       SUNNY     65  35  33 NW22G35   30.15R
$$

SDZ012>016-024>037-041>051-057-063-072>074-241800-
SOUTHWEST AND SOUTH CENTRAL SOUTH DAKOTA

CITY           SKY/WX    TMP DP  RH WIND       PRES   REMARKS
RAPID CTY ARPT SUNNY     70  32  24 N23G32    30.27S
PIERRE         SUNNY     67  41  38 NW17G25   30.20S
CUSTER         CLOUDY    56  29  35 VRB7      30.35R
ELLSWORTH AFB  MOSUNNY   69  32  25 NW18G26   30.27
PHILIP         SUNNY     73  33  23 NW24G32   30.22R
PINE RIDGE     CLOUDY    66  36  32 NW8       30.30S
SPEARFISH      FAIR      64  34  32 NW16G23   30.31S
WINNER         FAIR      76  32  20 NW24G36   30.20S
$$

SDZ004>011-016>023-039-040-241800-
NORTHEAST SOUTH DAKOTA

CITY           SKY/WX    TMP DP  RH WIND       PRES   REMARKS
ABERDEEN       CLOUDY    61  40  45 NW22      30.14R
WATERTOWN      PTSUNNY   59  41  51 NW22G31   30.09R
BROOKINGS      SUNNY     64  43  46 NW23G29   30.09S
SISSETON         N/A     61  40  45 NW22G29   30.07R
$$

SDZ017-020-022-023-036>040-048>070-241800-
SOUTHEAST SOUTH DAKOTA

CITY           SKY/WX    TMP DP  RH WIND       PRES   REMARKS
SIOUX FALLS    PTSUNNY   71  42  35 NW22G32   30.09S
HURON          SUNNY     67  41  38 NW24G35   30.13S
CHAMBERLAIN    SUNNY     71  40  32 W20G30    30.19R
MITCHELL       SUNNY     72  39  30 NW23G33   30.14R
YANKTON        SUNNY     73  35  25 W25G35    30.14S
$$

ABBREVIATIONS USED IN REMARKS
   TC - TEMPERATURE IN CELSIUS
  WCI - WIND CHILL INDEX
   HX - HEAT INDEX
  VSB - VISIBILITY





USA.gov is the U.S. government's official web portal to all federal, state and local government web resources and services.